When you browse on this site, cookies collect data to enhance your experience and personalize the content and advertising you see.
Visit our Privacy Policy to learn more. By continuing to use the site, you agree to this use of cookies and data.
  • en France
  • Liste des pays
  • À 7 jours
  • Température de l'eau
  • Carte météo
  • Widgets météo
  • user-avatar
    Se connecter

    Météo par heure à Windham

    Ce jour, 1 Juin, Lundi

    Heure Température Précipitation Vent Pression Humidité
    00:00 +8°C° 0 mm 1 m/s 758 mmHg 65%
    01:00 +7°C° 0 mm 1 m/s 758 mmHg 69%
    02:00 +6°C° 0 mm 1 m/s 758 mmHg 71%
    03:00 +6°C° 0 mm 1 m/s 758 mmHg 73%
    04:00 +6°C° 0 mm 1 m/s 758 mmHg 74%
    05:00 +8°C° 0 mm 1 m/s 758 mmHg 68%
    06:00 +9°C° 0 mm 2 m/s 759 mmHg 62%
    07:00 +12°C° 0 mm 2 m/s 759 mmHg 55%
    08:00 +12°C° 0 mm 3 m/s 759 mmHg 47%
    09:00 +14°C° 0 mm 3 m/s 758 mmHg 40%
    10:00 +16°C° 0 mm 3 m/s 758 mmHg 32%
    11:00 +17°C° 0 mm 3 m/s 757 mmHg 33%
    12:00 +17°C° 0 mm 4 m/s 757 mmHg 34%
    13:00 +17°C° 0 mm 5 m/s 756 mmHg 35%
    14:00 +18°C° 0 mm 4 m/s 756 mmHg 35%
    15:00 +19°C° 0 mm 4 m/s 755 mmHg 35%
    16:00 +19°C° 0 mm 4 m/s 755 mmHg 35%
    17:00 +17°C° 0 mm 3 m/s 755 mmHg 46%
    18:00 +15°C° 0 mm 2 m/s 755 mmHg 57%
    19:00 +14°C° 0 mm 2 m/s 755 mmHg 67%
    20:00 +13°C° 0 mm 2 m/s 755 mmHg 69%
    21:00 +12°C° 0 mm 1 m/s 755 mmHg 70%
    22:00 +11°C° 0 mm 1 m/s 755 mmHg 72%
    23:00 +11°C° 0.1 mm 1 m/s 755 mmHg 78%

    Demain, 2 Juin, Mardi

    Heure Température Précipitation Vent Pression Humidité
    00:00 +10°C° 0.1 mm 1 m/s 755 mmHg 84%
    01:00 +10°C° 0.1 mm 1 m/s 755 mmHg 89%
    02:00 +10°C° 0 mm 1 m/s 755 mmHg 90%
    03:00 +9°C° 0 mm 1 m/s 754 mmHg 90%
    04:00 +9°C° 0 mm 1 m/s 754 mmHg 90%
    05:00 +11°C° 0 mm 1 m/s 754 mmHg 85%
    06:00 +13°C° 0 mm 1 m/s 754 mmHg 80%
    07:00 +14°C° 0 mm 1 m/s 754 mmHg 76%
    08:00 +16°C° 0.1 mm 2 m/s 754 mmHg 70%
    09:00 +18°C° 0.1 mm 2 m/s 754 mmHg 64%
    10:00 +19°C° 0.1 mm 3 m/s 753 mmHg 58%
    11:00 +20°C° 0.2 mm 3 m/s 753 mmHg 56%
    12:00 +20°C° 0.2 mm 3 m/s 752 mmHg 55%
    13:00 +20°C° 0.2 mm 3 m/s 752 mmHg 54%
    14:00 +20°C° 0 mm 3 m/s 751 mmHg 53%
    15:00 +20°C° 0 mm 3 m/s 751 mmHg 53%
    16:00 +20°C° 0 mm 3 m/s 750 mmHg 52%
    17:00 +18°C° 0 mm 3 m/s 750 mmHg 59%
    18:00 +17°C° 0 mm 2 m/s 750 mmHg 65%
    19:00 +15°C° 0 mm 2 m/s 750 mmHg 72%
    20:00 +14°C° 0 mm 2 m/s 750 mmHg 75%
    21:00 +14°C° 0 mm 2 m/s 750 mmHg 77%
    22:00 +13°C° 0 mm 2 m/s 749 mmHg 80%
    23:00 +13°C° 0 mm 2 m/s 749 mmHg 82%

    Après-demain, 3 Juin, Mercredi

    Heure Température Précipitation Vent Pression Humidité
    00:00 +13°C° 0 mm 1 m/s 749 mmHg 85%
    01:00 +14°C° 0 mm 1 m/s 748 mmHg 87%
    02:00 +14°C° 0 mm 2 m/s 748 mmHg 90%
    03:00 +14°C° 0 mm 2 m/s 747 mmHg 92%
    04:00 +14°C° 0 mm 2 m/s 747 mmHg 94%
    05:00 +15°C° 0 mm 2 m/s 747 mmHg 89%
    06:00 +16°C° 0 mm 3 m/s 746 mmHg 84%
    07:00 +18°C° 0 mm 3 m/s 746 mmHg 79%
    08:00 +20°C° 0 mm 3 m/s 745 mmHg 72%
    09:00 +23°C° 0 mm 2 m/s 745 mmHg 66%
    10:00 +25°C° 0 mm 2 m/s 744 mmHg 59%
    11:00 +26°C° 0 mm 3 m/s 744 mmHg 58%
    12:00 +27°C° 0 mm 3 m/s 743 mmHg 57%
    13:00 +28°C° 0 mm 4 m/s 743 mmHg 56%
    14:00 +26°C° 0.2 mm 3 m/s 743 mmHg 65%
    15:00 +24°C° 0.2 mm 3 m/s 742 mmHg 75%
    16:00 +22°C° 0.2 mm 3 m/s 742 mmHg 85%
    17:00 +22°C° 0 mm 3 m/s 742 mmHg 86%
    18:00 +22°C° 0 mm 3 m/s 742 mmHg 87%
    19:00 +22°C° 0 mm 3 m/s 742 mmHg 88%
    20:00 +21°C° 2.1 mm 3 m/s 742 mmHg 91%
    21:00 +21°C° 2.1 mm 4 m/s 742 mmHg 93%
    22:00 +20°C° 2.1 mm 4 m/s 742 mmHg 96%
    23:00 +19°C° 0 mm 4 m/s 743 mmHg 96%

    4 Juin, Jeudi

    Heure Température Précipitation Vent Pression Humidité
    00:00 +19°C° 0 mm 3 m/s 743 mmHg 97%
    01:00 +18°C° 0 mm 3 m/s 743 mmHg 97%
    02:00 +17°C° 0 mm 3 m/s 744 mmHg 97%
    03:00 +17°C° 0 mm 3 m/s 744 mmHg 96%
    04:00 +16°C° 0 mm 3 m/s 745 mmHg 96%
    05:00 +17°C° 0 mm 3 m/s 746 mmHg 93%
    06:00 +18°C° 0 mm 3 m/s 747 mmHg 89%
    07:00 +19°C° 0 mm 3 m/s 747 mmHg 85%
    08:00 +21°C° 0 mm 3 m/s 748 mmHg 73%
    09:00 +24°C° 0 mm 3 m/s 748 mmHg 60%
    10:00 +26°C° 0 mm 2 m/s 749 mmHg 48%
    11:00 +27°C° 0 mm 2 m/s 749 mmHg 44%
    12:00 +29°C° 0 mm 2 m/s 749 mmHg 40%
    13:00 +30°C° 0 mm 2 m/s 749 mmHg 37%
    14:00 +29°C° 0 mm 3 m/s 749 mmHg 39%
    15:00 +29°C° 0 mm 3 m/s 749 mmHg 41%
    16:00 +29°C° 0 mm 3 m/s 749 mmHg 43%
    17:00 +27°C° 0 mm 3 m/s 749 mmHg 55%
    18:00 +24°C° 0 mm 2 m/s 749 mmHg 67%
    19:00 +20°C° 0 mm 2 m/s 750 mmHg 80%
    20:00 +19°C° 0 mm 2 m/s 750 mmHg 83%
    21:00 +18°C° 0 mm 2 m/s 750 mmHg 87%
    22:00 +16°C° 0 mm 1 m/s 750 mmHg 91%
    23:00 +16°C° 0 mm 1 m/s 750 mmHg 93%

    5 Juin, Vendredi

    Heure Température Précipitation Vent Pression Humidité
    00:00 +16°C° 0 mm 1 m/s 750 mmHg 94%
    01:00 +16°C° 0 mm 1 m/s 750 mmHg 96%
    02:00 +18°C° 0.2 mm 1 m/s 750 mmHg 97%
    03:00 +19°C° 0.2 mm 1 m/s 750 mmHg 98%
    04:00 +17°C° 0.2 mm 0 m/s 750 mmHg 99%
    05:00 +20°C° 0 mm 1 m/s 750 mmHg 98%
    06:00 +19°C° 0 mm 2 m/s 750 mmHg 97%
    07:00 +20°C° 0 mm 3 m/s 750 mmHg 95%
    08:00 +22°C° 0 mm 3 m/s 750 mmHg 85%
    09:00 +26°C° 0 mm 3 m/s 750 mmHg 75%
    10:00 +28°C° 0 mm 4 m/s 750 mmHg 64%
    11:00 +29°C° 0 mm 4 m/s 749 mmHg 60%
    12:00 +30°C° 0 mm 4 m/s 749 mmHg 56%
    13:00 +32°C° 0 mm 5 m/s 748 mmHg 52%
    14:00 +30°C° 0.3 mm 4 m/s 748 mmHg 61%
    15:00 +28°C° 0.3 mm 4 m/s 748 mmHg 69%
    16:00 +27°C° 0.3 mm 4 m/s 748 mmHg 78%
    17:00 +25°C° 0.5 mm 4 m/s 748 mmHg 84%
    18:00 +24°C° 0.5 mm 3 m/s 748 mmHg 90%
    19:00 +21°C° 0.5 mm 3 m/s 748 mmHg 95%
    20:00 +21°C° 0 mm 3 m/s 748 mmHg 96%
    21:00 +20°C° 0 mm 2 m/s 748 mmHg 97%
    22:00 +19°C° 0 mm 2 m/s 748 mmHg 98%
    23:00 +19°C° 0.1 mm 2 m/s 748 mmHg 98%

    6 Juin, Samedi

    Heure Température Précipitation Vent Pression Humidité
    00:00 +20°C° 0.1 mm 1 m/s 748 mmHg 98%
    01:00 +20°C° 0.1 mm 1 m/s 748 mmHg 98%
    02:00 +20°C° 0 mm 1 m/s 748 mmHg 97%
    03:00 +20°C° 0 mm 1 m/s 748 mmHg 96%
    04:00 +18°C° 0 mm 0 m/s 748 mmHg 96%
    05:00 +20°C° 0 mm 1 m/s 748 mmHg 93%
    06:00 +21°C° 0 mm 1 m/s 748 mmHg 90%
    07:00 +22°C° 0 mm 1 m/s 748 mmHg 88%
    08:00 +20°C° 1.1 mm 1 m/s 748 mmHg 91%
    09:00 +19°C° 1.1 mm 1 m/s 748 mmHg 93%
    10:00 +16°C° 1.1 mm 1 m/s 748 mmHg 96%
    11:00 +20°C° 0.4 mm 1 m/s 748 mmHg 84%
    12:00 +23°C° 0.4 mm 1 m/s 748 mmHg 71%
    13:00 +24°C° 0.4 mm 0 m/s 748 mmHg 59%
    14:00 +26°C° 0 mm 1 m/s 747 mmHg 58%
    15:00 +26°C° 0 mm 2 m/s 747 mmHg 57%
    16:00 +25°C° 0 mm 3 m/s 747 mmHg 57%
    17:00 +23°C° 0.1 mm 2 m/s 748 mmHg 66%
    18:00 +20°C° 0.1 mm 2 m/s 748 mmHg 75%
    19:00 +19°C° 0.1 mm 1 m/s 748 mmHg 84%
    20:00 +17°C° 0 mm 2 m/s 749 mmHg 78%
    21:00 +16°C° 0 mm 3 m/s 749 mmHg 72%
    22:00 +14°C° 0 mm 4 m/s 750 mmHg 67%
    23:00 +13°C° 0 mm 4 m/s 750 mmHg 65%
    Voir plus